[[{"header":{"parameterUnit":"m.s-1","parameterCategory":1,"la1":30.2991,"la2":30.254,"lo1":-89.0895,"lo2":-89.0444,"dy":0.0017,"dx":0.0017,"nx":28,"ny":28,"refTime":"2023-10-09T21:00:00:Z","depth":0,"parameterNumber":2,"parameterNumberName":"U-component_of_WINDS"},"data":[0,0,0,0,0,0,0,0,0,0,0,0,0,0,0,0,0,0,0,0,0,0,0,0,0,0,0,0,0,0,0,0,0,0,0,0,0,0,0,0,0,0,0,0,0,0,0,0,0,0,0,0,0,0,0,0,0,0,0.9392,0.9392,0,0.9428,0.9428,0.9429,0.9457,0.9457,0.9457,0.9457,0.9493,0.9494,0.9494,0,0,0,0,0,0,0,0,0,0,0,0,0,0.9347,0.9347,0.9392,0.9392,0.9393,0.9428,0.9429,0.9429,0.9457,0.9457,0.9457,0.9458,0.9493,0.9494,0.9495,0,0,0,0,0,0,0,0,0,0,0,0,0,0.9373,0.9348,0.9392,0.9411,0.9413,0.9428,0.9429,0.9429,0.9457,0.9457,0.9457,0.9458,0.9493,0.9494,0.9495,0.9493,0,0,0.9498,0.9498,0,0,0,0,0,0,0,0,0.9371,0.9375,0.9408,0.941,0.9412,0.9438,0.9426,0.9451,0.9456,0.944,0.9457,0.9458,0.9474,0.9477,0.9483,0.9495,0.9496,0.9498,0.9499,0.9499,0.9499,0,0,0,0,0,0,0,0.937,0.9373,0.9406,0.9408,0.9411,0.9418,0.9422,0.9431,0.9454,0.9441,0.9443,0.9447,0.9476,0.9482,0.9484,0.9497,0.9498,0.9499,0.95,0.95,0.9511,0.9511,0,0,0,0,0,0,0.9365,0.9371,0.9405,0.9407,0.9392,0.9418,0.9423,0.9429,0.9454,0.9459,0.9447,0.9449,0.948,0.9483,0.9485,0.9486,0.9499,0.95,0.9501,0.9512,0.9511,0.9511,0,0,0,0,0,0,0.9364,0.9368,0.9404,0.939,0.9395,0.9418,0.9426,0.943,0.9436,0.9459,0.9463,0.9449,0.948,0.9484,0.9492,0.9488,0.9501,0.9502,0.9512,0.9511,0.9511,0.9487,0,0,0,0,0,0,0.9362,0.9367,0.9367,0.939,0.9396,0.9409,0.9425,0.943,0.9438,0.944,0.9462,0.9466,0.9481,0.949,0.9493,0.9489,0.9502,0.9512,0.9512,0.9511,0.9488,0.9486,0.9484,0,0,0,0,0,0.9361,0.9358,0.9366,0.937,0.9396,0.9409,0.9412,0.943,0.9437,0.9437,0.9452,0.9465,0.9488,0.949,0.9494,0.9491,0.9513,0.9512,0.9511,0.9489,0.9486,0.9484,0,0,0,0,0,0,0.9333,0.9361,0.9371,0.9376,0.939,0.9413,0.9414,0.9426,0.9438,0.944,0.9461,0.9466,0.9471,0.9482,0.9484,0.9492,0.9502,0.9502,0.9484,0.9482,0.9479,0.9477,0.9503,0,0,0,0,0,0.9327,0.9336,0.936,0.9362,0.9369,0.939,0.9396,0.9409,0.9424,0.943,0.9446,0.946,0.947,0.9477,0.9487,0.949,0.9496,0.949,0.9488,0.9486,0.9485,0.9489,0.9487,0.9508,0.9508,0.9508,0,0,0.9316,0.9333,0.9336,0.9357,0.9369,0.9378,0.9395,0.9402,0.9409,0.9431,0.944,0.9452,0.9469,0.9474,0.9478,0.9483,0.9481,0.9485,0.9483,0.9484,0.9488,0.9486,0.9484,0.9508,0.9508,0.9508,0,0,0.93,0.9313,0.9316,0.9329,0.9348,0.9362,0.9363,0.9385,0.9394,0.9403,0.9421,0.9429,0.9446,0.9458,0.9466,0.9456,0.9468,0.9459,0.9447,0.945,0.9448,0.9447,0.9444,0.9442,0.9458,0.9458,0.9458,0,0.9283,0.9296,0.9316,0.9324,0.9333,0.9354,0.9358,0.9369,0.939,0.9396,0.9402,0.9425,0.9438,0.9448,0.9445,0.9451,0.9453,0.9456,0.9447,0.9446,0.9445,0.9442,0.9441,0.9457,0.9457,0.9457,0.9458,0,0.9275,0.9284,0.9285,0.9306,0.9315,0.932,0.9341,0.9348,0.936,0.9374,0.9384,0.94,0.9416,0.9419,0.943,0.943,0.9433,0.9443,0.9454,0.9441,0.9439,0.9438,0.9455,0.9456,0.9456,0.9456,0,0,0.9241,0.9274,0.9274,0.9285,0.9308,0.9315,0.9322,0.9338,0.9343,0.9357,0.9364,0.9379,0.9389,0.9398,0.9412,0.9414,0.9406,0.9424,0.9425,0.942,0.9408,0.94,0.9399,0.9415,0.9415,0.9414,0.9406,0,0.9229,0.9243,0.9262,0.9269,0.9278,0.93,0.9306,0.9321,0.9334,0.9344,0.9359,0.9369,0.9381,0.9387,0.9391,0.9406,0.9404,0.9407,0.9421,0.9421,0.9416,0.9397,0.9389,0.9381,0.9405,0.9405,0.9405,0,0.9216,0.923,0.9238,0.9262,0.9267,0.9272,0.9288,0.9297,0.9315,0.9325,0.9336,0.9351,0.936,0.937,0.9382,0.9384,0.9391,0.94,0.94,0.9402,0.9412,0.9399,0.9378,0.9377,0.9404,0.9404,0.9404,0,0.9191,0.9212,0.922,0.9228,0.9256,0.9259,0.9271,0.9289,0.9297,0.9312,0.9318,0.9332,0.9341,0.9352,0.9371,0.9376,0.9382,0.9393,0.939,0.939,0.939,0.939,0.937,0.9394,0.9394,0.9394,0.9394,0,0.9175,0.9179,0.921,0.9214,0.9221,0.9243,0.9248,0.9261,0.9278,0.9286,0.9305,0.9312,0.9337,0.9347,0.9362,0.937,0.9374,0.9382,0.9386,0.938,0.9379,0.9385,0.9386,0.9394,0.9394,0.9394,0.9394,0,0.9148,0.9168,0.9179,0.9204,0.9211,0.9214,0.9236,0.9242,0.9258,0.9268,0.9271,0.9295,0.9308,0.9328,0.9347,0.9357,0.9364,0.937,0.9358,0.936,0.9356,0.9356,0.934,0.9339,0.9363,0.9363,0.9363,0,0.9136,0.914,0.9167,0.9174,0.9185,0.9197,0.9206,0.9228,0.9237,0.9258,0.9262,0.9276,0.9289,0.931,0.9328,0.9343,0.935,0.9344,0.9352,0.9347,0.9351,0.935,0.9351,0.9341,0.9341,0.9341,0.934,0,0.9114,0.9124,0.9137,0.9153,0.9164,0.9178,0.9193,0.9197,0.9223,0.9232,0.9246,0.9256,0.9276,0.9291,0.9309,0.9321,0.9335,0.9337,0.9338,0.9332,0.9325,0.9329,0.9352,0.9338,0.9338,0.9338,0.9338,0.9338,0.9095,0.91,0.912,0.9133,0.9147,0.9161,0.9168,0.9185,0.9197,0.9215,0.9228,0.9241,0.926,0.9286,0.9297,0.9308,0.9314,0.9314,0.9314,0.9314,0.9312,0.9323,0.9312,0.9312,0.9312,0.9312,0.9312,0,0.9074,0.9088,0.91,0.9121,0.9132,0.9145,0.9163,0.9171,0.9183,0.9199,0.9212,0.9229,0.9244,0.9264,0.9281,0.9286,0.9293,0.9289,0.9289,0.9292,0.9306,0.9304,0.9283,0.9283,0.9283,0.9283,0.9283,0.9283,0.9064,0.9074,0.9086,0.9104,0.9118,0.9132,0.9141,0.9154,0.9167,0.9185,0.9198,0.9211,0.923,0.9248,0.9262,0.9268,0.9273,0.9268,0.9275,0.9288,0.9291,0.9293,0.9292,0.9268,0.9268,0.926,0.926,0.926]},{"header":{"parameterUnit":"m.s-1","parameterCategory":1,"la1":30.2991,"la2":30.254,"lo1":-89.0895,"lo2":-89.0444,"dy":0.0017,"dx":0.0017,"nx":28,"ny":28,"refTime":"2023-10-09T21:00:00:Z","depth":0,"parameterNumber":3,"parameterNumberName":"V-component_of_WINDS"},"data":[0,0,0,0,0,0,0,0,0,0,0,0,0,0,0,0,0,0,0,0,0,0,0,0,0,0,0,0,0,0,0,0,0,0,0,0,0,0,0,0,0,0,0,0,0,0,0,0,0,0,0,0,0,0,0,0,0,0,-0.8505,-0.8505,0,-0.8521,-0.8521,-0.8521,-0.851,-0.8509,-0.8509,-0.8508,-0.8525,-0.8526,-0.8527,0,0,0,0,0,0,0,0,0,0,0,0,0,-0.8464,-0.8464,-0.8505,-0.8505,-0.8505,-0.8521,-0.8521,-0.8521,-0.851,-0.8509,-0.8509,-0.8508,-0.8525,-0.8526,-0.8527,0,0,0,0,0,0,0,0,0,0,0,0,0,-0.8481,-0.8465,-0.8505,-0.8501,-0.8501,-0.8521,-0.8521,-0.8521,-0.851,-0.8509,-0.8508,-0.8508,-0.8524,-0.8526,-0.8527,-0.8551,0,0,-0.8531,-0.8532,0,0,0,0,0,0,0,0,-0.848,-0.8482,-0.8502,-0.8502,-0.8501,-0.8513,-0.8513,-0.8531,-0.851,-0.8507,-0.8508,-0.8507,-0.8521,-0.8523,-0.8528,-0.8552,-0.8552,-0.8531,-0.8532,-0.8533,-0.8533,0,0,0,0,0,0,0,-0.8479,-0.8482,-0.8511,-0.8502,-0.8502,-0.8499,-0.8501,-0.8516,-0.8518,-0.8507,-0.8506,-0.8508,-0.8521,-0.8526,-0.8528,-0.8553,-0.8531,-0.8532,-0.8533,-0.8534,-0.8597,-0.8598,0,0,0,0,0,0,-0.8478,-0.8481,-0.8511,-0.8512,-0.8489,-0.85,-0.8502,-0.851,-0.8518,-0.8518,-0.8509,-0.8508,-0.8524,-0.8526,-0.8529,-0.8557,-0.8533,-0.8534,-0.8535,-0.8596,-0.8597,-0.8598,0,0,0,0,0,0,-0.8477,-0.8481,-0.851,-0.8496,-0.8499,-0.8502,-0.8511,-0.851,-0.8516,-0.8519,-0.852,-0.8514,-0.8524,-0.8527,-0.8545,-0.8557,-0.8535,-0.8536,-0.8595,-0.8596,-0.8598,-0.8614,0,0,0,0,0,0,-0.8476,-0.848,-0.849,-0.8496,-0.85,-0.8527,-0.8511,-0.8511,-0.8518,-0.8517,-0.8524,-0.8525,-0.8523,-0.8543,-0.8547,-0.8559,-0.8537,-0.8594,-0.8596,-0.8597,-0.8613,-0.8616,-0.8619,0,0,0,0,0,-0.8474,-0.8494,-0.849,-0.8494,-0.8512,-0.8527,-0.853,-0.8528,-0.8519,-0.8528,-0.8531,-0.8524,-0.8556,-0.8545,-0.8549,-0.8562,-0.8593,-0.8595,-0.8597,-0.8611,-0.8615,-0.8619,0,0,0,0,0,0,-0.8488,-0.8494,-0.8491,-0.8513,-0.852,-0.8525,-0.8537,-0.8532,-0.8542,-0.854,-0.8538,-0.8539,-0.8559,-0.8562,-0.8551,-0.8585,-0.8573,-0.8576,-0.8583,-0.8586,-0.8589,-0.8588,-0.8538,0,0,0,0,0,-0.8494,-0.8506,-0.8511,-0.853,-0.8533,-0.8535,-0.8541,-0.8539,-0.8547,-0.8549,-0.8553,-0.856,-0.8572,-0.8579,-0.859,-0.8613,-0.8615,-0.8624,-0.8627,-0.8629,-0.8632,-0.8644,-0.8648,-0.8604,-0.8604,-0.8604,0,0,-0.8506,-0.8511,-0.8518,-0.8533,-0.8538,-0.855,-0.8537,-0.8551,-0.856,-0.8552,-0.8569,-0.8573,-0.858,-0.8601,-0.8611,-0.8605,-0.8644,-0.8632,-0.8634,-0.8635,-0.8646,-0.865,-0.8654,-0.8606,-0.8605,-0.8605,0,0,-0.8533,-0.8538,-0.8555,-0.856,-0.8568,-0.8569,-0.8573,-0.8579,-0.8581,-0.8599,-0.8592,-0.8603,-0.8623,-0.8629,-0.8634,-0.8664,-0.8659,-0.8668,-0.8684,-0.8696,-0.8699,-0.8702,-0.8713,-0.8717,-0.867,-0.867,-0.867,0,-0.8547,-0.8566,-0.8564,-0.8578,-0.8584,-0.8577,-0.8593,-0.8599,-0.861,-0.8614,-0.8607,-0.8632,-0.8637,-0.8659,-0.8666,-0.8671,-0.8675,-0.8667,-0.8699,-0.8702,-0.8705,-0.8715,-0.8719,-0.8671,-0.8671,-0.8671,-0.8671,0,-0.8582,-0.8595,-0.8607,-0.8618,-0.8626,-0.8641,-0.8641,-0.8649,-0.8647,-0.8648,-0.8666,-0.8672,-0.8683,-0.8689,-0.8686,-0.871,-0.8706,-0.8699,-0.8687,-0.871,-0.8719,-0.8723,-0.8673,-0.8673,-0.8672,-0.8672,0,0,-0.8619,-0.8628,-0.8633,-0.8637,-0.8646,-0.8656,-0.8671,-0.8682,-0.8689,-0.8697,-0.8709,-0.8726,-0.8719,-0.8726,-0.8724,-0.8735,-0.8758,-0.8726,-0.8726,-0.8732,-0.8784,-0.8789,-0.8794,-0.8754,-0.8755,-0.8755,-0.8784,0,-0.8647,-0.8673,-0.8671,-0.8696,-0.8708,-0.8701,-0.8714,-0.872,-0.8722,-0.8732,-0.8734,-0.8746,-0.8736,-0.874,-0.875,-0.8753,-0.8768,-0.8751,-0.8765,-0.8766,-0.8763,-0.8799,-0.8804,-0.8831,-0.8787,-0.8788,-0.8788,0,-0.8683,-0.8692,-0.8717,-0.8724,-0.8729,-0.8741,-0.8751,-0.8761,-0.8768,-0.8768,-0.8775,-0.8772,-0.8787,-0.8774,-0.8794,-0.8783,-0.8789,-0.8791,-0.8792,-0.8793,-0.8778,-0.8801,-0.8839,-0.8843,-0.8794,-0.8794,-0.8793,0,-0.8707,-0.8726,-0.8743,-0.8748,-0.8755,-0.8764,-0.8767,-0.8774,-0.8781,-0.879,-0.8794,-0.8805,-0.881,-0.8819,-0.8818,-0.8809,-0.8839,-0.8826,-0.8839,-0.8839,-0.8846,-0.8845,-0.8885,-0.885,-0.885,-0.885,-0.885,0,-0.8738,-0.8754,-0.8754,-0.8765,-0.8782,-0.8781,-0.8798,-0.8801,-0.8806,-0.8818,-0.8812,-0.8823,-0.8822,-0.8832,-0.8832,-0.8849,-0.8851,-0.8852,-0.8852,-0.8853,-0.8852,-0.8856,-0.8854,-0.8851,-0.8851,-0.8851,-0.885,0,-0.8768,-0.8769,-0.8787,-0.8793,-0.8795,-0.8808,-0.8813,-0.8823,-0.8824,-0.8838,-0.8842,-0.8844,-0.8856,-0.8856,-0.887,-0.887,-0.889,-0.8888,-0.8888,-0.8888,-0.8901,-0.89,-0.8945,-0.895,-0.8912,-0.8912,-0.8912,0,-0.8788,-0.88,-0.8807,-0.8814,-0.8818,-0.883,-0.8837,-0.8835,-0.8843,-0.8852,-0.8861,-0.8873,-0.8882,-0.8902,-0.8904,-0.8915,-0.8913,-0.8928,-0.8914,-0.8915,-0.8913,-0.8912,-0.8913,-0.893,-0.8931,-0.8931,-0.8932,0,-0.8823,-0.8822,-0.8833,-0.8843,-0.8851,-0.886,-0.8867,-0.8873,-0.8873,-0.8881,-0.8894,-0.8901,-0.8915,-0.8927,-0.8937,-0.8941,-0.8936,-0.8936,-0.8939,-0.894,-0.8939,-0.894,-0.8895,-0.8935,-0.8934,-0.8934,-0.8934,-0.8934,-0.8848,-0.8858,-0.8865,-0.8876,-0.8882,-0.8889,-0.8899,-0.8901,-0.8912,-0.8923,-0.8922,-0.8935,-0.8942,-0.8955,-0.896,-0.8971,-0.8965,-0.8971,-0.8972,-0.8973,-0.8975,-0.8938,-0.8973,-0.8973,-0.8972,-0.8972,-0.8972,0,-0.8882,-0.8886,-0.8897,-0.8908,-0.8917,-0.8911,-0.8919,-0.8927,-0.894,-0.8946,-0.8955,-0.897,-0.8981,-0.8984,-0.8995,-0.9003,-0.9001,-0.9006,-0.9005,-0.9006,-0.8979,-0.8975,-0.9007,-0.9007,-0.9007,-0.9007,-0.9007,-0.9007,-0.8901,-0.8918,-0.8919,-0.8939,-0.8942,-0.8956,-0.8961,-0.8967,-0.8973,-0.8989,-0.8998,-0.9,-0.9006,-0.9017,-0.9027,-0.9028,-0.9032,-0.9037,-0.9037,-0.9012,-0.9008,-0.9005,-0.9001,-0.9038,-0.9038,-0.9064,-0.9064,-0.9064]}]]